Hourly Data Report for October 18, 2014

All times are specified in Local Standard Time (LST). Add 1 hour to adjust for Daylight Saving Time where and when it is observed.

KAMLOOPS A
BRITISH COLUMBIA

50°42'09.000" N
120°26'55.000" W
345.30 m
1163781
71887
YKA

Download Data

Hourly Data (October 2014)
Hourly Data Report for October 18, 2014
Temp Definition
°C
Dew Point Temp Definition
°C
Rel Hum Definition
%
Wind Dir Definition
10's deg

Wind Spd Definition
km/h
Visibility Definition
km
Stn Press Definition
kPa
Hmdx Definition


Wind Chill Definition


Weather Definition


TIME
00:00 Legend Double Dagger 11.2 7.0 75 9 23 64.4 96.73     LegendNANA
01:00 Legend Double Dagger 11.2 7.4 77 8 23 64.4 96.75     Mostly Cloudy
02:00 Legend Double Dagger 11.1 7.3 77 11 30 64.4 96.77     LegendNANA
03:00 Legend Double Dagger 10.5 7.0 79 8 20 64.4 96.84     LegendNANA
04:00 Legend Double Dagger 10.6 7.1 79 10 28 64.4 96.88     Mainly Clear
05:00 Legend Double Dagger 10.3 7.2 81 9 15 64.4 96.94     LegendNANA
06:00 Legend Double Dagger 10.7 7.1 78 7 17 64.4 96.99     LegendNANA
07:00 Legend Double Dagger 10.4 6.9 79 9 16 64.4 97.02     Mainly Clear
08:00 Legend Double Dagger 12.7 7.8 72 10 21 64.4 97.06     LegendNANA
09:00 Legend Double Dagger 14.5 7.8 64 10 28 64.4 97.05     LegendNANA
10:00 Legend Double Dagger 16.3 8.1 58 11 30 64.4 97.02     Mainly Clear
11:00 Legend Double Dagger 18.1 7.6 50 10 30 64.4 96.98     LegendNANA
12:00 Legend Double Dagger 19.4 7.0 44 14 21 64.4 97.02     LegendNANA
13:00 Legend Double Dagger 17.8 8.7 55 11 24 64.4 97.06     Rain Showers
14:00 Legend Double Dagger 19.1 8.0 48 17 21 64.4 97.03     Rain Showers
15:00 Legend Double Dagger 17.7 9.4 58 12 22 64.4 96.98     LegendNANA
16:00 Legend Double Dagger 17.0 9.5 61 12 20 64.4 96.95     Mostly Cloudy
17:00 Legend Double Dagger 16.3 8.8 61 11 26 64.4 97.01     LegendNANA
18:00 Legend Double Dagger 16.1 8.9 62 11 26 64.4 97.02     LegendNANA
19:00 Legend Double Dagger 15.4 8.7 64 10 27 64.4 97.06     Mostly Cloudy
20:00 Legend Double Dagger 15.7 8.5 62 11 23 64.4 97.10     LegendNANA
21:00 Legend Double Dagger 16.4 7.2 54 12 24 64.4 97.09     LegendNANA
22:00 Legend Double Dagger 16.7 6.6 51 13 28 64.4 97.08     Mostly Cloudy
23:00 Legend Double Dagger 14.7 7.6 62 8 21 64.4 97.09     LegendNANA

Notes on Data Quality.

Legend

  • E = Estimated
  • M = Missing
  • NA = Not Available
  • ‡ = Partner data that is not subject to review by the National Climate Archives
Date modified: